• MPC Preparation (Info)

  • MPEC 2020-W12 : 2020 VX5

    The following Minor Planet Electronic Circular may be linked-to from your own Web pages, but must not otherwise be redistributed electronically.

    A form allowing access to any MPEC is at the bottom of this page.


    Read MPEC 2020-W11 Read MPEC 2020-W13


    M.P.E.C. 2020-W12                             Issued 2020 November 16, 13:34 UT
    
         The Minor Planet Electronic Circulars contain information on unusual
             minor planets and routine data on comets.  They are published
        on behalf of Division F of the International Astronomical Union by the
              Minor Planet Center, Smithsonian Astrophysical Observatory,
                              Cambridge, MA 02138, U.S.A.
    
                 Prepared using the Tamkin Foundation Computer Network
    
                                  MPC@CFA.HARVARD.EDU
                URL https://www.minorplanetcenter.net/    ISSN 1523-6714
    
                                    2020 VX5                                 
    
    
    Observations:
         K20V05X  C2020 11 13.24301221 19 38.810+05 35 18.43         20.64GVEW012F51
         K20V05X  C2020 11 14.23368121 33 26.326+07 37 54.39         20.79GVEW012F51
         K20V05X  C2020 11 14.25836321 33 45.816+07 40 54.11         20.33GVEW012F51
         K20V05X* C2020 11 15.11962121 45 38.57 +09 23 40.6          20.40GVEW012G96
         K20V05X  C2020 11 15.12480021 45 42.61 +09 24 17.2          21.04GVEW012G96
         K20V05X  C2020 11 15.12998921 45 46.69 +09 24 53.4          20.92GVEW012G96
         K20V05X  C2020 11 15.13516321 45 50.81 +09 25 30.2          20.69GVEW012G96
         K20V05X KC2020 11 15.20395721 46 45.01 +09 33 30.3          19.50GVEW012I52
         K20V05X KC2020 11 15.20564021 46 46.36 +09 33 41.2          20.17GVEW012I52
         K20V05X KC2020 11 15.20732221 46 47.66 +09 33 53.0          20.03GVEW012I52
         K20V05X hC2020 11 15.72001321 53 51.63 +10 32 55.7          20.6 GVEW012L01
         K20V05X hC2020 11 15.72208721 53 53.23 +10 33 10.0          20.7 GVEW012L01
         K20V05X hC2020 11 15.72416321 53 54.80 +10 33 24.4          20.5 GVEW012L01
         K20V05X KC2020 11 15.72624921 53 56.44 +10 33 38.8          20.3 GVEW012L01
         K20V05X KC2020 11 15.72783621 53 57.66 +10 33 49.6          20.4 GVEW012L01
         K20V05X KC2020 11 15.76679 21 54 27.80 +10 38 22.6          20.2 GVEW012L07
         K20V05X KC2020 11 15.78639 21 54 43.03 +10 40 36.6          19.7 GVEW012L07
         K20V05X KC2020 11 16.00677321 57 43.87 +11 05 35.9          19.9 VuEW012H21
         K20V05X KC2020 11 16.00968121 57 46.12 +11 05 56.0          20.0 VuEW012H21
         K20V05X KC2020 11 16.01258721 57 48.34 +11 06 15.4          20.0 VuEW012H21
         K20V05X KC2020 11 16.03690 21 58 07.89 +11 09 00.8          19.6 RqEW012H36
         K20V05X KC2020 11 16.07561621 58 39.30 +11 13 32.4          20.21GVEW012I52
         K20V05X KC2020 11 16.07660121 58 40.04 +11 13 38.8          20.84GVEW012I52
         K20V05X KC2020 11 16.07758521 58 40.80 +11 13 45.7          20.81GVEW012I52
         K20V05X KC2020 11 16.07857121 58 41.54 +11 13 52.1          21.43GVEW012I52
         K20V05X KC2020 11 16.09751 21 58 54.66 +11 15 46.2          19.4 RqEW012H36
         K20V05X KC2020 11 16.10409 21 58 59.74 +11 16 30.9          19.3 RqEW012H36
         K20V05X KC2020 11 16.14147 21 59 28.73 +11 20 38.2          20.3 RqEW012734
         K20V05X KC2020 11 16.14895 21 59 34.59 +11 21 28.4          19.8 RqEW012734
         K20V05X KC2020 11 16.15810 21 59 41.69 +11 22 28.7          19.9 RqEW012734
    
    Observer details:
    734 Farpoint Observatory, Eskridge.  Observers G. Hug, D. Cromer, D. Goodin,
        R. Valentine.  Measurer D. Cromer.  0.7-m reflector + CCD.
    F51 Pan-STARRS 1, Haleakala.  Observers J. Bulger, K. Chambers, T. Lowe, A.
        Schultz, M. Willman.  Measurers S. Chastel, M. Huber, Y. Ramanjooloo, R.
        Wainscoat, R. Weryk.  1.8-m Ritchey-Chretien + CCD.
    G96 Mt. Lemmon Survey.  Observer D. Rankin.  Measurers E. J. Christensen, G.
        A. Farneth, D. C. Fuls, A. R. Gibbs, A. D. Grauer, H. Groeller, R. A.
        Kowalski, S. M. Larson, G. J. Leonard, T. A. Pruyne, D. Rankin, R. L.
        Seaman, F. C. Shelly, K. W. Wierzchos.  1.5-m reflector + 10K CCD.
    H21 Astronomical Research Observatory, Westfield.  Observer R. Holmes.
        Measurers S. Foglia, L. Buzzi, T. Linder, R. Holmes.  0.76-m f/3.0
        astrograph + CCD.
    H36 Sandlot Observatory, Scranton.  Observer G. Hug.  0.56-m reflector + CCD.
    I52 Steward Observatory, Mt. Lemmon Station.  Observer T. A. Pruyne.
        Measurers E. J. Christensen, G. A. Farneth, D. C. Fuls, A. R. Gibbs, A. D.
        Grauer, H. Groeller, R. A. Kowalski, S. M. Larson, G. J. Leonard, T. A.
        Pruyne, D. Rankin, R. L. Seaman, F. C. Shelly, K. W. Wierzchos.  1.0-m
        reflector + CCD.
    L01 Visnjan Observatory, Tican.  Observers K. Korlevic, V. Dobos, D. Pujagic.
        Measurer K. Korlevic.  1.0-m f/2.9 reflector + CCD.
    L07 Osservatorio Salvatore di Giacomo, Agerola.  Observers E. Guido, A.
        Catapano.  0.5-m f/8 Ritchey-Chretien + CCD.
    
    Orbital elements:
    2020 VX5                                                 Earth MOID = 0.0231 AU
    Epoch 2020 Dec. 17.0 TT = JDT 2459200.5                 Veres                   
    M  73.05171              (2000.0)            P               Q                  
    n   0.80553747     Peri.  312.51945     +0.92018082     +0.39048398             
    a   1.1439636      Node    24.53596     -0.33642438     +0.82540991             
    e   0.2398510      Incl.    3.87981     -0.20021462     +0.40770178             
    P   1.22           H   23.50          G   0.15           U   8                  
    Residuals in seconds of arc
    201113 F51  0.0+  0.0-    201115 L01  1.2+  0.3-    201116 H36  0.3-  0.4+
    201114 F51  0.3-  0.0-    201115 L01  1.0+  0.3-    201116 I52  0.2+  0.0-
    201114 F51  0.1+  0.2+    201115 L01  0.3+  0.1-    201116 I52  0.0+  0.2-
    201115 G96  0.0-  0.2-    201115 L01  0.5+  0.0+    201116 I52  0.1+  0.0+
    201115 G96  0.3-  0.1+    201115 L01  0.3+  0.0-    201116 I52  0.1-  0.2-
    201115 G96  0.1-  0.1-    201115 L07  0.2+  0.8-    201116 H36  0.1+  0.3-
    201115 G96  0.9+  0.4+    201115 L07  0.0+  0.0-    201116 H36  0.1+  0.5+
    201115 I52  0.1-  0.4+    201116 H21  0.1-  0.4-    201116 734  0.3-  0.5-
    201115 I52  0.1+  0.4-    201116 H21  0.0+  0.1+    201116 734  0.3+  0.2+
    201115 I52  0.4-  0.3-    201116 H21  0.3-  0.1-    201116 734  0.1-  0.0-
    
    Ephemeris:
    2020 VX5                 a,e,i = 1.14, 0.24, 4                   q = 0.8696
    Date    TT    R. A. (2000) Decl.     Delta      r    Elong.  Phase     V
    2020 10 17    16 55 38.2 -25 58 55   0.1558  0.9086    51.8   120.4    24.1
    ...
    2020 11 01    18 45 28.6 -16 36 48   0.09340 0.9528    62.4   112.6    22.6
    ...
    2020 11 09    20 20 56.6 -03 21 15   0.07603 0.9807    80.4    95.3    21.3
    ...
    2020 11 15    21 44 01.8 +09 10 15   0.07640 1.0029    98.2    77.5    20.6
    2020 11 16    21 57 37.8 +11 05 38   0.07768 1.0067   101.0    74.7    20.6
    2020 11 17    22 10 57.1 +12 54 52   0.07928 1.0105   103.7    71.9    20.5
    ...
    2020 11 23    23 22 23.3 +21 19 08   0.09463 1.0337   116.9    58.5    20.6
    ...
    2020 12 01    00 32 04.4 +26 55 14   0.1257  1.0652   126.3    48.3    20.9
    ...
    2020 12 16    01 50 37.5 +30 00 08   0.2020  1.1246   130.0    42.1    21.9
    
    M. P. C. Staff               (C) Copyright 2020 MPC           M.P.E.C. 2020-W12
    


    Read MPEC 2020-W11 Read MPEC 2020-W13


    MPEC number:

    Enter an MPEC number in one of the following forms:

    • 1997-B01 (the full form)
    • J97B01 (the packed version of the full form)
    • B01 (the abbreviated form)